weather.gov     
National Weather Service

Regional Weather Roundup
NWS Homepage
This page is being discontinued on March 12, 2014.
The same data is available at this site. Please update your bookmarks.
Thank you, and we apologize for the inconvenience.
Please send an email to SR-SRH.Webmaster@noaa.gov with any concerns.


Current Version
Previous Version:    01  02  03  04  05  06  07  08  09  10  11  12  13  14  15  16  17  18  19  20  21  22  23  24  25  26  27  28  29  30  
   31  32  33  34  35  36  37  38  39  40  41  42  43  44  45  46  47  48  49  50  51  52  53  54  
[Printable]
385
ASUS44 KMAF 310710
RWRMAF
MIDLAND AREA WEATHER ROUNDUP
NATIONAL WEATHER SERVICE MIDLAND TX
200 AM CDT THU JUL 31 2014

...IN SOUTHWEST TEXAS AND SOUTHEAST NEW MEXICO...

CITY           SKY/WX    TMP DP  RH WIND       PRES   REMARKS
ALPINE         CLOUDY    74  58  57 N7        30.21S
ANDREWS        FAIR      71  62  71 NE20      30.11F
ARTESIA        CLOUDY    73  57  56 N13       30.20R
BIG SPRING     CLOUDY    79  65  61 N18G24    30.09S
CARLSBAD       CLOUDY    74  63  68 N9        30.15R
DRYDEN           N/A     91  49  23 NE10      29.98F
FORT STOCKTON  CLOUDY    79  60  52 NW5       30.06S
GUAD PASS      CLOUDY    69  60  73 NE37G45   30.24R
HOBBS          CLOUDY    70  59  68 NE21G28   30.17F
MARFA          CLOUDY    70  61  73 S3        30.21S
MIDLAND AIRPK  CLOUDY    75  67  77 NE12      30.09R
MIDLAND INTL   CLOUDY    73  68  84 N12       30.07R
ODESSA           N/A     73  67  81 NE15      30.09R
PECOS          CLOUDY    74  70  87 NW7       30.06S
PRESIDIO       PTSUNNY   85  57  38 MISG      30.02R
SEMINOLE       CLOUDY    71  61  71 NE13G21   30.16S
SNYDER         CLOUDY    72  65  77 N21G29    30.08S
WINK           CLOUDY    78  63  59 N13       30.06S
$$
...OTHER STATIONS IN TEXAS...

CITY           SKY/WX    TMP DP  RH WIND       PRES   REMARKS
ABILENE        CLOUDY    76  69  79 N17G28    30.02R
AMARILLO       CLOUDY    63  60  90 N13       30.23S
AUSTIN         PTCLDY    76  68  76 S9        29.98R
BROWNSVILLE    CLEAR     81  77  88 S12       29.95S
CORPUS CHRISTI PTCLDY    81  75  82 S14       29.95S
DALLAS FTW     CLOUDY    75  69  81 E12       29.94F
DEL RIO        PTCLDY    86  67  52 SE14      29.90R
EL PASO        CLOUDY    79  59  50 N20       30.14R THUNDER
HOUSTON INT    PTCLDY    79  74  84 SE7       29.98S
LUBBOCK        CLOUDY    67  60  78 NE16      30.17F
SAN ANGELO     CLOUDY    84  62  47 NW6       29.99R
SAN ANTONIO    MOCLDY    80  72  76 SE13      29.98F
WACO           MOCLDY    82  70  66 S16       29.94R
WICHITA FALLS  NOT AVBL
$$
...OTHER LOCATIONS IN NEW MEXICO...

CITY           SKY/WX    TMP DP  RH WIND       PRES   REMARKS
ALAMAGORDO     MOCLDY    72  59  64 S16G31    30.20R
ALBUQUERQUE    MOCLDY    68  58  70 E22       30.24S
CANNON AFB     CLOUDY    63  62  94 NE15      30.26S
CLOVIS         NOT AVBL
HOLLOMAN AFB   TSTM      72  63  73 S13G29    30.18R
ROSWELL        CLOUDY    71  60  68 N8        30.22R
RUIDOSO        CLOUDY    59  57  94 S10       30.39F
SANTA FE       PTCLDY    62  56  80 S14G24    30.33R
TRUTH OR CONSE CLOUDY    72  60  66 E7        30.19R
TUCUMCARI      MOCLDY    64  58  80 NE5       30.27F
$$




U.S. Dept. of Commerce
NOAA National Weather Service
1325 East West Highway
Silver Spring, MD 20910
E-mail: w-nws.webmaster@noaa.gov
Page last modified: May 16, 2007
NATIONAL WEATHER SERVICE: for Safety, for Work, for Fun - FOR LIFE